User: anonymous   Login
Location: Firdgum
(53.2488°N, 5.5615°E)
Time: 08:37:40
(UTC+00:00)
Language:

Cosmos 1624 Rocket - Orbit

View from above orbital plane
View from above orbital plane
View from above satellite
View from above satellite

Ground track
Ground track

The orbit data is extracted from the following two-line orbital elements,

1 15483U 85006B   20057.26622392 +.00000047 +00000-0 +25013-4 0  9992
2 15483 074.0480 349.0657 0017586 087.7989 063.9823 14.36302836837550
Epoch (UTC): 26 February 2020 06:23:21
Eccentricity: 0.0017586
inclination: 74.0480°
perigee height: 758 km
apogee height: 783 km
right ascension of ascending node: 349.0657°
argument of perigee: 87.7989°
revolutions per day: 14.36302836
mean anomaly at epoch: 63.9823°
orbit number at epoch: 83755

The dashed part of the orbit path shows where the satellite is in the earth's shadow,  

DLR